Torna al catalogo

STARLINK-2460

AttivoComunicazioniVLEO
NORAD 48120·PAYLOAD·🇺🇸 United States

Lanciato Apr 7, 2021 da Cape Canaveral Space Force Station

Loading…

Prossimi Passaggi (prossime 24 ore)

TLE

AggiornatoSource: CelesTrak SupGP

Epoca: Sep 15, 2026, 02:59 UTC

1 48120C 21027AE  26258.12479167  .00072476  00000+0  11525-2 0  2586
2 48120  53.1572 353.7444 0001466  40.4413  81.2793 15.52660105    15

Traccia STARLINK-2460 in tempo reale con AllMySat

Download on the App Store